FW2487 Weather Reports


Display with metric or nautical units.
time (UTC)temp
F
wind
direction
speed
MPH
gust
MPH
rain 1hr
in
rain 24hr
in
rain mn
in
humidity
%
barometer
mb
20260509014534 63 254 8.0 17.0 0.00 0.00 0.00 46 1020.7
20260509011536 64 260 10.0 20.0 0.00 0.00 0.00 44 1020.7
20260509010034 64 258 10.0 18.0 0.00 0.00 0.00 43 1020.6
20260509004641 65 275 10.0 22.0 0.00 0.00 0.00 42 1020.5
20260509003142 65 274 8.0 16.0 0.00 0.00 0.00 40 1020.3
20260509001537 67 267 9.0 18.0 0.00 0.00 0.00 37 1019.9
20260508234532 67 256 6.0 16.0 0.00 0.00 0.00 37 1019.9
20260508231536 66 269 8.0 22.0 0.00 0.00 0.00 36 1019.8
20260508230036 66 278 11.0 20.0 0.00 0.00 0.00 36 1019.6
20260508224533 67 267 9.0 19.0 0.00 0.00 0.00 34 1019.6
20260508223110 68 275 9.0 18.0 0.00 0.00 0.00 33 1019.5
20260508221537 67 260 11.0 23.0 0.00 0.00 0.00 31 1019.5
20260508220033 67 270 9.0 21.0 0.00 0.00 0.00 31 1019.5
20260508214607 67 245 9.0 21.0 0.00 0.00 0.00 29 1019.6
20260508211534 67 247 8.0 17.0 0.00 0.00 0.00 30 1019.6
20260508210142 66 261 11.0 22.0 0.00 0.00 0.00 32 1019.5
20260508203037 66 260 8.0 20.0 0.00 0.00 0.00 33 1019.6
20260508201536 65 270 6.0 16.0 0.00 0.00 0.00 35 1019.5
20260508200034 65 275 7.0 22.0 0.00 0.00 0.00 35 1019.4
20260508194534 64 276 9.0 19.0 0.00 0.00 0.00 38 1019.4
20260508193037 63 276 10.0 20.0 0.00 0.00 0.00 39 1019.3
20260508191534 63 282 12.0 21.0 0.00 0.00 0.00 39 1019.3
20260508183035 61 287 9.0 22.0 0.00 0.00 0.00 42 1019.2
20260508181607 57 28 2.0 6.0 0.00 0.00 0.00 59 1019.1
20260508180035 55 195 0.0 3.0 0.00 0.00 0.00 63 1019.1
20260508174535 55 245 2.0 5.0 0.00 0.00 0.00 65 1019.2
20260508170035 54 339 3.0 8.0 0.00 0.00 0.00 64 1018.6
20260508163107 54 14 9.0 16.0 0.00 0.00 0.00 63 1018.6
20260508154736 0 0 0.0 0.0 0.00 0.00 0.00 100
20260508153036 56 343 7.0 15.0 0.00 0.00 0.00 61 1018.7
20260508151534 57 353 7.0 15.0 0.00 0.00 0.00 61 1018.6
20260508150034 56 18 6.0 12.0 0.00 0.00 0.00 62 1018.4
20260508143036 55 2 8.0 14.0 0.00 0.00 0.00 58 1018.0
20260508141531 55 353 6.0 11.0 0.00 0.00 0.00 58 1017.8
20260508140105 54 344 6.0 13.0 0.00 0.00 0.00 59 1017.7
20260508133035 54 357 7.0 13.0 0.00 0.00 0.00 61 1017.5
20260508131535 54 340 8.0 12.0 0.00 0.00 0.00 62 1017.4
20260508124538 52 346 6.0 10.0 0.00 0.00 0.00 67 1017.2
20260508121534 43 28 1.0 4.0 0.00 0.00 0.00 72 1016.8
20260508120038 44 165 2.0 6.0 0.00 0.00 0.00 69 1016.7
20260508114645 44 164 3.0 6.0 0.00 0.00 0.00 68 1016.7
20260508113045 44 185 2.0 7.0 0.00 0.00 0.00 66 1016.6
20260508111533 44 162 5.0 7.0 0.00 0.00 0.00 68 1016.5
20260508110036 43 164 3.0 6.0 0.00 0.00 0.00 69 1016.4
20260508104529 42 185 2.0 6.0 0.00 0.00 0.00 70 1016.4
20260508103107 41 173 2.0 5.0 0.00 0.00 0.00 73 1016.4
20260508100036 41 158 2.0 5.0 0.00 0.00 0.00 75 1016.4
20260508094534 40 160 2.0 7.0 0.00 0.00 0.00 74 1016.3
20260508093033 41 151 0.0 2.0 0.00 0.00 0.00 72 1016.3
20260508091535 42 158 3.0 5.0 0.00 0.00 0.00 71 1016.3
20260508090035 42 163 3.0 6.0 0.00 0.00 0.00 70 1016.4
20260508084608 44 158 1.0 4.0 0.00 0.00 0.00 66 1016.4
20260508083035 44 156 2.0 6.0 0.00 0.00 0.00 64 1016.4
20260508081535 45 156 4.0 6.0 0.00 0.00 0.00 63 1016.5
20260508080037 45 161 4.0 6.0 0.00 0.00 0.00 64 1016.4
20260508074537 44 169 3.0 6.0 0.00 0.00 0.00 65 1016.4
20260508073036 46 152 4.0 6.0 0.00 0.00 0.00 62 1016.6
20260508071533 46 159 5.0 6.0 0.00 0.00 0.00 61 1016.6
20260508070035 47 156 3.0 6.0 0.00 0.00 0.00 60 1016.6
20260508064534 47 154 5.0 7.0 0.00 0.00 0.00 59 1016.7
20260508063141 47 154 5.0 7.0 0.00 0.00 0.00 59 1016.7
20260508061536 48 156 5.0 8.0 0.00 0.00 0.00 58 1016.8
20260508060035 49 183 3.0 7.0 0.00 0.00 0.00 56 1016.9
20260508054536 49 274 2.0 5.0 0.00 0.00 0.00 55 1016.9
20260508053035 50 22 1.0 4.0 0.00 0.00 0.00 53 1016.9
20260508051534 51 340 2.0 6.0 0.00 0.00 0.00 51 1016.9
20260508044610 52 53 1.0 5.0 0.00 0.00 0.00 48 1016.9
20260508043034 53 22 2.0 5.0 0.00 0.00 0.00 45 1016.8
20260508041532 54 14 2.0 7.0 0.00 0.00 0.00 43 1016.7
20260508034537 57 13 2.0 7.0 0.00 0.00 0.00 39 1016.3
20260508033035 59 337 5.0 9.0 0.00 0.00 0.00 35 1016.1
20260508031537 61 332 6.0 11.0 0.00 0.00 0.00 35 1015.9
20260508030036 61 318 7.0 15.0 0.00 0.00 0.00 36 1015.9
20260508024534 63 325 7.0 13.0 0.00 0.00 0.00 35 1015.9
20260508023108 64 322 8.0 13.0 0.00 0.00 0.00 35 1015.7
20260508021533 65 321 7.0 13.0 0.00 0.00 0.00 35 1015.7